Terminal Aerodrome Forecast
Issued by NWS Dodge City, KS

Home | Current Version | Previous Version | Text Only | Print | Product List | Glossary On
Versions: 1 2 3 4 5 6 7 8 9 10 11 12 13 14 15 16 17 18 19 20 21 22 23 24 25 26 27 28 29 30 31 32 33 34 35 36 37 38 39 40 41 42 43 44
000
FTUS43 KDDC 210122 AAA
TAFDDC
TAF AMD
KDDC 210122Z 2101/2124 18006KT 4SM BR SKC
      TEMPO 2105/2109 3SM BR OVC007
     FM210900 19007KT 1/4SM FG OVC004
     FM211500 19009KT 4SM BR OVC007=

USA.gov is the U.S. government's official web portal to all federal, state and local government web resources and services.